918  
ASUS42 KILM 240713  
RWRILM  
RWRILM  
REGIONAL HOURLY WEATHER ROUNDUP  
NATIONAL WEATHER SERVICE WILMINGTON NC  
200 AM EST WED JAN 24 2018  
 
NOTE: "FAIR" INDICATES FEW OR NO CLOUDS BELOW 12,000 FEET WITH NO  
SIGNIFICANT WEATHER AND/OR S TO VISIBILITY
.  
   
..............WFO WILMINGTON COUNTY WARNING AREA............
 
 
   
.....COASTAL NC AND SC COUNTIES...
 
 
 
CITY SKY/WX TMP DP RH WIND PRES REMARKS
 
WILMINGTON FAIR 48 35 60 W7 30.02R  
N MYRTLE BEACH FAIR 49 33 54 W5 30.04R  
MYRTLE BEACH FAIR 49 33 54 W8 30.06R  
   
.....INLAND NC AND SC COUNTIES....
 
 
 
CITY SKY/WX TMP DP RH WIND PRES REMARKS
 
LUMBERTON FAIR 41 32 70 W5 30.03R  
ELIZABETHTOWN NOT AVBL  
WHITEVILLE FAIR 48 32 53 CALM 30.03R  
FLORENCE FAIR 46 32 58 W5 30.05R  
DARLINGTON FAIR 40 33 76 W5 30.06R  
KINGSTREE FAIR 45 32 61 W6 30.06R  
HARTSVILLE FAIR 36 32 87 CALM 30.05R  
BENNETTSVILLE FAIR 41 34 75 CALM 30.05R  
CONWAY FAIR 46 32 57 CALM 30.05R  
GEORGETOWN FAIR 46 32 57 W5 30.06S  
MARION FAIR 45 32 61 W3 30.05R  
   
...................REST OF NORTH CAROLINA...................
 
 
   
........EASTERN NC......
 
 
 
CITY SKY/WX TMP DP RH WIND PRES REMARKS
 
CAPE HATTERAS NOT AVBL  
JACKSONVILLE FAIR 47 33 58 W5 30.01R  
MOREHEAD CITY FAIR 47 39 74 W3 29.99R  
KENANSVILLE FAIR 46 30 53 W5 30.01R  
NEW BERN FAIR 48 33 56 W6 30.00R  
ELIZABETH CITY FAIR 48 38 68 W5 29.96R  
   
........CENTRAL NC......
 
 
 
CITY SKY/WX TMP DP RH WIND PRES REMARKS
 
RALEIGH DURHAM FAIR 41 28 60 CALM 30.01R  
ROCKY MOUNT FAIR 46 29 51 W3 30.00R  
ROANOKE RAPIDS NOT AVBL  
FAYETTEVILLE FAIR 45 33 63 W6 30.02R  
HOFFMAN FAIR 36 32 85 CALM 30.03R  
   
........WESTERN NC......
 
 
 
CITY SKY/WX TMP DP RH WIND PRES REMARKS
 
CHARLOTTE FAIR 41 28 60 N5 30.05R  
GREENSBORO FAIR 40 29 64 NW7 30.00R  
HICKORY NOT AVBL  
BOONE NOT AVBL  
ASHEVILLE NOT AVBL  
   
....................REST OF SOUTH CAROLINA..................
 
 
   
........EASTERN SC......
 
 
 
CITY SKY/WX TMP DP RH WIND PRES REMARKS
 
CHARLESTON FAIR 51 33 50 NW8 30.07S  
BEAUFORT MCAS FAIR 51 34 52 NW9 30.09S  
HILTON HEAD FAIR 52 32 46 VRB6G16 30.10S  
   
........CENTRAL SC......
 
 
 
CITY SKY/WX TMP DP RH WIND PRES REMARKS
 
COLUMBIA FAIR 46 34 62 W8 30.07R  
ORANGEBURG FAIR 47 31 53 NW8 30.08R  
SUMTER SHAW FAIR 45 30 56 W5 30.05R  
   
........WESTERN SC......
 
 
 
CITY SKY/WX TMP DP RH WIND PRES REMARKS
 
GREENVILLE NOT AVBL  
ROCK HILL FAIR 38 30 73 W5 30.06R WCI 34  
ANDERSON FAIR 41 29 62 W6 30.09R  
CLEMSON NOT AVBL  
GREENWOOD FAIR 39 31 72 W6 30.10R WCI 35  
 
   
..................COASTAL AND OFFSHORE REPORTS...............
 
 
   
...............LOCAL PIERS AND NC RESERVE.............
 
 
 
STATION/POSITION TIME SKY/WX TEMP WIND PRES VSBY
 
AIR SEA DIR/SP/G  
(UTC) (F) (DEG/KT/KT) (MB) (MI)  
JOHNY MRCER PIER 0642 51 50 280/ 7/ 9 1016.3R  
NC RESRV MASNBRO 0545 50 290/ 2 1015.0  
OCEAN CREST PIER NOT AVBL  
SPRINGMAID PIER 0642 1020.2R  
 
   
...............COASTAL AND OFFSHORE BUOYS.............
 
 
 
STATION/POSITION TIME SKY/WX TEMP WIND PRES VSBY
 
AIR SEA DIR/SP/G  
(UTC) (F) (DEG/KT/KT) (MB) (MI)  
DIMNDSHOAL 41025 0700 61 310/ 21/ 27 1014.0  
CAPE LOOKOUT 0600 270/ 11/ 13 1014.8R  
ONSLOW BAY 41036 NOT AVBL  
ONSLOW BAY 41064 0608 57 59 270/ 16/ 19 1015.2  
ONSLOW BAY 41159 0700 59 N/A  
WVE H/P(F/S)= 6/ 8  
 
MASNBO INL 41110 0659 47 N/A  
WVE H/P(F/S)= 3/ 8  
 
WILM HARBR 41108 0700 52 N/A  
WVE H/P(F/S)= 5/ 8  
 
27SE WRITB 41037 0608 56 62 270/ 16/ 21 1015.6R  
FRYING PAN 41013 0700 290/ 19/ 25 1016.8  
SUNST NRSH 41024 0608 50 290/ 6/ 8 1016.3R  
CAPRS NRSH 41029 0608 50 53 300/ 10/ 16 1017.6R  
EDISTO 41004 0700 59 310/ 19/ 25 1018.6  
 
   
.........OFFSHORE BUOYS BEYOND 100 NM OFFSHORE........
 
   
....IN A TRIANGLE---HAT TO BERMUDA TO BAHAMAS TO HAT..
 
 
 
 
STATION/POSITION TIME SKY/WX TEMP WIND PRES VSBY
 
AIR SEA DIR/SP/G  
(UTC) (F) (DEG/KT/KT) (MB) (MI)  
150E HAT 41001 NOT AVBL  
W BERMUDA 41048 0700 71 210/ 19/ 23 1018.1  
ATLANTIC S 41049 0650 73 76 90/ 10/ 14 1021.8F  
WVE H/P(F/S)= 5/ 7 SWL H/P/D(F/S/D)= 5/100/ 7  
 
E BAHAMAS 41046 0700 78 110/ 14/ 17 1018.6  
NE BAHAMAS 41047 0700 65 190/ 8/ 10 N/A  
120E CANVRL41010 NOT AVBL  
 
END  
 
 
CLICK HERE TO GO TO PREVIOUS BULLETINS.

The Nexlab NC Page
The Nexlab SC Page Main Text Page